STARLINK-1260, 45404

Orbit data source: Space-Track

STARLINK-1260, 45404 is a payload satellite owned by SpaceX/Seattle (US) in LEO that was launched on Wed, 18 Mar 2020 UTC via an FALCON 9 launch vehicle from the Air Force Eastern Test Range (AFETR). Payload-class satellites include a variety of spacecraft equipped with specific instruments for various scientific and technological missions. These include communications satellites like Starlink; space stations such as the ISS; scientific satellites like the Hubble; Earth observation satellites from companies like Planet Labs, Umbra, and HawkEye 360; GPS; miniature CubeSats for education and research; and military/defense satellites.

Loading next visibility...
Identifier
45404, 2020-019AW
Orbit
LEO
Country
Flag of USUS
Related business
Manufacturer
SpaceX/Seattle
Mission
Operational Commercial Communications
Bus & Motor
STARLINK, Unknown motor
Mass
260 kg wet, ~248 kg dry
Launch date (UTC)
2020-03-18 (6 years ago)
Launch vehicle
FALCON 9
Launch site
Air Force Eastern Test Range (AFETR)
Object type
Payload
Rocket body
Debris
Shape & HBR
Box + 1 Pan, 10.1 m
Radar Cross Section
13.562 m², Large (>1 m²)

Expand to show TLE details & history
Last TLE update: 14 hours ago

TLE from 14 hours ago
0 STARLINK-1260
1 45404U 20019AW  25295.51633455 -.00000107  00000-0  11708-4 0  9994
2 45404  53.0561  36.9013 0001485  97.4243 262.6914 15.06380733309039
Epoch: 2025-10-22T12:23Z
TLE epoch observation values (Epoch: 2025-10-22T12:23:31.305Z)
Latitude
-0.00007°
Longitude
179.83199°
Altitude
548.281 km
Speed
7.589 km/s
True Right ascension
02h 27m 36s
True Declination
0° 00' 00"
Sunlit
Object was in full shadow at epoch
Visualization orbit readout
Latitude
Unknown
Longitude
Unknown
Altitude
Unknown
Speed
Unknown
Apparent Right ascension
Unknown
Apparent Declination
Unknown
Sunlit
N/A
Visualization observer readout
Local Sidereal Time
21:44:07
Azimuth
Unknown
Elevation
Unknown
Doppler factor
Unknown
Orbital elements
Apogee altitude
548.57 km
Perigee altitude
546.513 km
Semi-major axis
6,925.678 km
Eccentricity
0.00015
Inclination
53.0561°
RAAN
36.9013°
Arg. of periapsis
97.4243°
True anomaly
262.67452°
Mean anomaly
262.6914°
Eccentric anomaly
262.68296°
Mean motion
3.76573 °/min
Orbital period
95.6 mins
BSTAR
0.000011708
Loading maneuver chart data...
Computing Atmospheric mass density...

Documentation

Showing up to 5 results
|